Location: Igri�s
(42.2144°N, 0.4320°W)
Time: 16:32:05
(UTC+00:00)

Cosmos 1464 Rocket - Pass Details

Date: 13 August 2020
Orbit: 952 x 1002 km, 82.9° (Epoch: 17 September)

Event Time Altitude Azimuth Distance (km) Brightness Sun altitude
Exits shadow 23:39:33 58° 31° (NNE) 1,120 4.4 -33.2°
Drops below altitude 10° 23:44:32 10° 11° (N) 2,709 7.1 -33.3°
Sets 23:47:02 0° 10° (N) 3,654 8.0 -33.3°
